Tracking 18851 objects as of 25-Nov-2017
HD Live streaming from Space Station
objects crossing your sky now

FENGYUN 1C DEB

Track FENGYUN 1C DEB now!
10-day predictions


NORAD ID: 31169
Int'l Code: 1999-025BHX
Perigee: 825.5 km
Apogee: 939.4 km
Inclination: 99.0 °
Period: 102.5 minutes
Semi major axis: 7253 km
RCS: 0.0093 m2 (small)
Launch date: May 10, 1999
Source: People's Republic of China (PRC)
Launch site: Taiyaun Space Center, China (TSC)

Note: This is SATELLITE DEBRIS
aabbcc
Your satellite tracking list
Your tracking list is empty




NASA's NSSDC Master Catalog

Two Line Element Set (TLE):
1 31169U 99025BHX 17327.77083567  .00001287  00000-0  79939-3 0  9996
2 31169  99.0309 268.7341 0078511 344.2596  15.6133 14.05360003545250
Source of the keplerian elements: AFSPC